Regional Weather Roundup
Issued by NWS Albany, NY

Home | Current Version | Previous Version | Text Only | Print | Product List | Glossary On
Versions: 1 2 3 4 5 6 7 8 9 10 11 12 13 14 15 16 17 18 19 20 21 22 23 24 25 26 27 28
000
ASUS41 KALY 271210
RWRALY

NEW YORK STATE HOURLY WEATHER ROUNDUP
NATIONAL WEATHER SERVICE ALBANY NY
800 AM EDT THU APR 27 2017

NOTE: "FAIR" INDICATES FEW OR NO CLOUDS BELOW 12,000 FEET WITH NO
SIGNIFICANT WEATHER AND/OR NO OBSTRUCTIONS TO VISIBILITY.

NYZ032-033-038>043-046>054-057>066-NYZ062>081-082-084-271300-
EAST


CITY           SKY/WX    TMP DP  RH WIND       PRES   REMARKS
ALBANY         CLOUDY    61  54  77 VRB5      29.88R
GLENS FALLS    CLOUDY    61  54  77 S6        29.87R
POUGHKEEPSIE   CLOUDY    59  57  93 CALM      29.89R
MONTGOMERY     CLOUDY    59  57  93 S3        29.89R FOG
WHITE PLAINS   DRZL/FOG  58  57  97 SE5       29.91R VSB 1/2
ISLIP          CLOUDY    58  57  97 CALM      29.91R FOG
NEW YORK CITY  CLOUDY    59  57  93 CALM      29.90R FOG
CENTRAL PARK   CLOUDY    59  59 100 CALM      29.93R FOG
$$

NYZ005>009-017-018-044>046-055-056-271300-
CENTRAL


CITY           SKY/WX    TMP DP  RH WIND       PRES   REMARKS
FULTON         SUNNY     63  56  78 SE12G18   29.77S
SYRACUSE       MOSUNNY   62  57  83 SE9       29.78S
ROME           CLOUDY    60  57  89 E8        29.84S
ELMIRA         CLOUDY    61  56  83 CALM      29.81R
BINGHAMTON     CLOUDY    57  55  93 SE9       29.84S
MONTICELLO     CLOUDY    55  55 100 CALM      29.91S VSB 1
$$

NYZ026>034-041>043-087-271300-
NORTH


CITY           SKY/WX    TMP DP  RH WIND       PRES   REMARKS
WATERTOWN      SUNNY     67  58  72 VRB5      29.75S
FORT DRUM      NOT AVBL
OGDENSBURG     CLOUDY    55  54  97 NE6       29.79S FOG
MASSENA        FOG       52  52 100 NE9       29.83R VSB 1/4
SARANAC LAKE   MOSUNNY   50  50 100 CALM      29.84S
PLATTSBURGH    SUNNY     56  52  86 CALM      29.83S
$$

NYZ001>004-010>016-019>021-085-271300-
WEST


CITY           SKY/WX    TMP DP  RH WIND       PRES   REMARKS
NIAGARA FALLS  SUNNY     66  56  70 SE8       29.66R
BUFFALO        MOSUNNY   66  56  70 SE13      29.68R
DUNKIRK        SUNNY     72  57  59 S18G31    29.64F
JAMESTOWN      SUNNY     61  54  77 S8        29.72S
WELLSVILLE     SUNNY     61  55  81 VRB7      29.80R
ROCHESTER      MOSUNNY   65  57  75 S5        29.72R
PENN YAN       SUNNY     63  54  72 S8        29.78R
$$

             KEY
       WCI = WIND CHILL INDEX
       VSB = VISIBILITY
       HX  = HEAT INDEX
$$




USA.gov is the U.S. government's official web portal to all federal, state and local government web resources and services.